AirNav   Air Wisconsin Up To $57,000 Bonus
 
 1067 users online  

02T Wise River Airport
Wise River, Montana, USA

GOING TO WISE RIVER?


FAA INFORMATION EFFECTIVE 22 APRIL 2021

Location

FAA Identifier: 02T
Lat/Long: 45-46-12.1000N 112-58-49.7000W
45-46.201667N 112-58.828333W
45.7700278,-112.9804722
(estimated)
Elevation: 5830 ft. / 1777 m (estimated)
Variation: 17E (1985)
From city: 2 miles SW of WISE RIVER, MT
Time zone: UTC -6 (UTC -7 during Standard Time)
Zip code: 59762

Airport Operations

Airport use: Open to the public
Activation date: 11/1989
Control tower: no
ARTCC: SALT LAKE CITY CENTER
FSS: GREAT FALLS FLIGHT SERVICE STATION
NOTAMs facility: GTF (NOTAM-D service available)
Attendance: UNATNDD
Wind indicator: yes
Segmented circle: yes

Airport Communications

CTAF: 122.9

Nearby radio navigation aids

VOR radial/distance  VOR name  Freq  Var
CPNr196/18.5COPPERTOWN VOR/DME111.6016E
HIAr243/34.4WHITEHALL VOR/DME113.7018E
DLNr312/36.2DILLON VOR/DME113.0018E

Airport Services

Parking: tiedowns

Runway Information

Runway 2/20

Dimensions: 4050 x 60 ft. / 1234 x 18 m
Surface: turf/dirt, in good condition
Runway edge markings: RED CONES ON EACH RY END MARK THRESHOLDS.
RUNWAY 2  RUNWAY 20
Latitude: 45-45.945238N45-46.458817N
Longitude: 112-59.130995W112-58.523860W
Elevation: 5830.0 ft.5779.0 ft.
Traffic pattern: rightleft
Runway heading: 023 magnetic, 040 true203 magnetic, 220 true

Airport Ownership and Management from official FAA records

Ownership: Publicly-owned
Owner: BEAVERHEAD COUNTY
2 SO PACIFIC ST
DILLON, MT 59725-2799
Phone 406-683-3700
Manager: YVONNE JONES
2400 AIRPORT RD
DILLON , MT 59725
Phone (406) 832-3130

Airport Operational Statistics

Aircraft operations: 50/year *
50% transient general aviation
50% local general aviation
* for 12-month period ending 25 June 2019

Additional Remarks

ARPT NOT PLOWED WINTER MONTHS.
FOR CD CTC SALT LAKE ARTCC AT 801-320-2568.

Instrument Procedures

There are no published instrument procedures at 02T.

Some nearby airports with instrument procedures:

KBTM - Bert Mooney Airport (23 nm NE)
3U3 - Bowman Field Airport (23 nm N)
KRVF - Ruby Valley Field Airport (32 nm SE)
KDLN - Dillon Airport (36 nm SE)
38S - Deer Lodge-City-County Airport (38 nm N)
 
Loc | Ops | Rwys | IFR | FBO | Links
Com | Nav | Svcs | Stats | Notes
Area around 02T (Wise River Airport)
 
Road maps at: MapQuest Bing Google
 
Aerial photo
No photo
 
Sectional chart

 
Airport distance calculator
Flying to Wise River Airport? Find the distance to fly.

From to 02T

Sunrise and sunset
Times for 11-May-2021
 Local
(UTC-6)
 Zulu
(UTC)
Morning civil twilight05:3211:32
Sunrise06:0612:06
Sunset20:5002:50
Evening civil twilight21:2503:25

Current date and time
Zulu (UTC)  12-May-2021 01:49:02
Local (UTC-6)  11-May-2021 19:49:02
 
METAR
KBTM 
23nm NE 
120053Z AUTO 10SM FEW120 12/M07 A3016 RMK AO2 SLP220 T01171072
K3U3 
23nm N 
120130Z AUTO 29006KT 10SM 11/M04 A3017
KRVF 
32nm SE 
120130Z AUTO 18013G22KT 10SM FEW033 SCT046 BKN055 12/M04 A3015 RMK AO2
KDLN 
36nm SE 
120053Z AUTO 00000KT 10SM FEW100 11/M04 A3013 RMK AO2 SLP204 T01111039
K38S 
38nm N 
120130Z AUTO 33009KT 10SM 12/M03 A3019
TAF
KBTM 
23nm NE 
120021Z 1200/1224 31007KT P6SM VCSH BKN090 FM120300 15003KT P6SM SCT250
NOTAMs
Click for the latest NOTAMs
NOTAMs are issued by the DoD/FAA and will open in a separate window not controlled by AirNav.

 

 
 

Would you like to see your business listed on this page?

 If your business provides an interesting product or service to pilots, flight crews, aircraft, or users of the Wise River Airport, you should consider listing it here.  To start the listing process, click on the button below
 
Add a business
 

Other Pages about Wise River Airport

Update a link
 
Copyright © AirNav, LLC. All rights reserved. Privacy Policy  Contact